Regional Weather Roundup
Issued by NWS Jackson, KY

Home | Current Version | Previous Version | Text Only | Print | Product List | Glossary Off
Versions: 1 2 3 4 5 6 7 8 9 10 11 12 13 14 15 16 17 18 19 20 21 22 23 24 25 26 27 28 29 30 31 32 33 34 35 36 37 38 39 40 41 42 43 44 45 46 47 48 49 50

000
ASUS43 KJKL 220911
RWRJKL

EAST KENTUCKY HOURLY WEATHER ROUNDUP
NATIONAL WEATHER SERVICE JACKSON KY
500 AM EDT FRI AUG 22 2014

NOTE: "FAIR" INDICATES FEW OR NO CLOUDS BELOW 12,000 FEET WITH
NO SIGNIFICANT WEATHER AND/OR OBSTRUCTIONS TO VISIBILITY.

* THESE REPORTS ARE NOT UNDER NWS QUALITY CONTROL AND MAY NOT
  REPORT WEATHER SUCH AS PRECIPITATION AND FOG.

KYZ079-080-083-085-087-088-110-112-115-119-120-221000
...EASTERN KENTUCKY...

CITY           SKY/WX    TMP DP  RH WIND       PRES   REMARKS
JACKSON        PTCLDY    71  69  93 CALM      30.07S
LONDON         MOCLDY    72  69  90 CALM      30.08R
SOMERSET*      MOCLDY    70  70 100 CALM      30.07S FOG
MONTICELLO*    MOCLDY    69  68  97 CALM      30.07F
MIDDLESBORO*   FOG       69  69 100 CALM      30.09S VSB 1/4
HARLAN APT*    CLOUDY    68  66  94 MISG      30.11S VSB<1/4
BLACK MTN*       N/A     68  66  94 W5          N/A
PIKEVILLE APT* PTCLDY    72  68  88 S3        30.06F
BIG SANDY*     PTSUNNY   71  69  95 S3        30.04F
MOREHEAD APT*  CLOUDY    72  70  94 CALM      30.06S
$$

KYZ035-036-041-042-044-050-067-078-099-221000
...CENTRAL KENTUCKY...

CITY           SKY/WX    TMP DP  RH WIND       PRES   REMARKS
MT STERLING*   MOCLDY    73  72  94 W3        30.05R
FLEMING/MASON* CLEAR     70  70 100 SW6       30.02F
DANVILLE*      PTCLDY    73  70  88 S3        30.05S
RICHMOND*      PTCLDY    75  70  83 SW7       30.04S
LEXINGTON      MOCLDY    76  71  85 S5        30.04R
FRANKFORT      PTCLDY    73  71  93 SW5       30.01S
$$

KYZ091>093-OHZ055-061-077-WVZ005-015-034-035-042-221000
...SOUTHERN OHIO/WEST VIRGINIA...

CITY           SKY/WX    TMP DP  RH WIND       PRES   REMARKS
COVINGTON      CLOUDY    70  68  93 S5        30.00S FOG
COLUMBUS       MOCLDY    71  67  87 CALM      29.98R
DAYTON         CLOUDY    72  69  90 N8        30.00R
WILMINGTON     CLOUDY    70  67  90 W6        29.98S
HUNTINGTON     LGT RAIN  70  70 100 SE5       30.00F FOG
CHARLESTON     LGT RAIN  70  70 100 SW6       30.03F
PINEVILLE*     FOG       67  67 100 MISG      30.13F VSB 1/4
BECKLEY        PTCLDY    67  64  90 SW10      30.11F
BLUEFIELD      PTCLDY    69  65  86 SW7       30.15S
$$

VAZ002-007-008-TNZ017-027-036-066-071-221000
...SOUTHWEST VIRGINIA/EAST TENNESSEE...

CITY           SKY/WX    TMP DP  RH WIND       PRES   REMARKS
WISE*          MOCLDY    68  68 100 SW7       30.16S
JONESVILLE*    FOG       64  64 100 CALM      30.12F VSB 1/4
ABINGDON*      CLOUDY    68  68 100 CALM      30.14R FOG
BRISTOL        FOG       71  69  93 E3        30.11S VSB 3/4
KNOXVILLE      PTCLDY    73  69  87 CALM      30.07S
OAK RIDGE      PTCLDY    74  71  91 CALM      30.09S
CROSSVILLE     MOCLDY    71  67  87 CALM      30.13F
NASHVILLE      PTCLDY    75  72  90 CALM      30.04F
$$

...KEY TO REMARKS...
VSB - VISIBILITY IN MILES
WCI - WIND CHILL INDEX
HX  - HEAT INDEX

$$


USA.gov is the U.S. government's official web portal to all federal, state and local government web resources and services.